Weather History for Camden, SC

Change the Weather History Date:

Saturday, January 21, 2012

  Actual Average (KSSC) Record (KSSC)
Temperature  
Mean Temperature 54 °F -  
Max Temperature 59 °F 53 °F 71 °F (1999)
Min Temperature 48 °F 32 °F 14 °F (2008)
Degree Days  
Heating Degree Days 12    
Growing Degree Days 4 (Base 50)    
Moisture  
Dew Point 54 °F    
Average Humidity 95    
Maximum Humidity 100    
Minimum Humidity 82    
Precipitation  
Precipitation 0.96 in - - ()
Sea Level Pressure  
Sea Level Pressure 29.98 in    
Wind  
Wind Speed 5 mph (SSW)    
Max Wind Speed 16 mph    
Max Gust Speed 21 mph    
Visibility 7 miles    
Events Rain , Thunderstorm    
Averages and records for this station are not official NWS values.
T = Trace of Precipitation, MM = Missing Value Source: NWS Daily Summary

Daily Weather History Graph

Daily Weather History Graph

Search for Another Location

Airport:

Trip Planner

Search our weather history database for the weather conditions in past years. The results will help you decide how hot, cold, wet, or windy it might be!

Date:

Astronomy

Jan. 21, 2012 Rise Set
Actual Time 7:26 AM EST 5:40 PM EST
Civil Twilight 6:59 AM EST 6:07 PM EST
Nautical Twilight 6:28 AM EST 6:38 PM EST
Astronomical Twilight 5:58 AM EST 7:08 PM EST
Moon 5:53 AM EST (1/21) 4:16 PM EST (1/21)
Length of Visible Light 11h 08m
Length of Day
10h 14m
Waning Crescent, 3% of the Moon is Illuminated
Jan 21
Waning Crescent
Jan 23
New
Jan 30
First Quarter
Feb 7
Full
Feb 14
Last Quarter

Hourly Weather History & Observations

Time (EST) Temp. Dew Point Humidity Pressure Visibility Wind Dir Wind Speed Gust Speed Precip Events Conditions
12:15 AM 48.2 °F 48.2 °F 100% 30.08 in 2.5 mi Calm Calm - 0.00 in   Overcast
12:35 AM 48.2 °F 48.2 °F 100% 30.07 in 1.2 mi NE 3.5 mph - 0.13 in   Light Drizzle
12:55 AM 48.2 °F 48.2 °F 100% 30.06 in 2.5 mi Calm Calm - 0.13 in   Overcast
1:15 AM 48.2 °F 48.2 °F 100% 30.04 in 3.0 mi ESE 3.5 mph - 0.00 in   Overcast
1:35 AM 50.0 °F 50.0 °F 100% 30.04 in 3.0 mi ESE 3.5 mph - 0.00 in   Overcast
1:55 AM 50.0 °F 50.0 °F 100% 30.03 in 3.0 mi Calm Calm - 0.01 in   Overcast
2:15 AM 50.0 °F 50.0 °F 100% 30.03 in 1.8 mi Calm Calm - 0.07 in   Light Drizzle
2:35 AM 51.8 °F 51.8 °F 100% 30.04 in 5.0 mi WNW 5.8 mph - 0.08 in   Overcast
3:15 AM 51.8 °F 51.8 °F 100% 30.02 in 5.0 mi WSW 3.5 mph - 0.02 in   Overcast
3:35 AM 51.8 °F 51.8 °F 100% 30.01 in 10.0 mi South 3.5 mph - 0.02 in   Overcast
3:55 AM 51.8 °F 51.8 °F 100% 30.00 in 10.0 mi South 5.8 mph - 0.02 in   Overcast
4:15 AM 53.6 °F 51.8 °F 94% 30.00 in 3.0 mi SW 5.8 mph - 0.01 in Rain Light Rain
4:35 AM 53.6 °F 51.8 °F 94% 29.99 in 4.0 mi South 5.8 mph - 0.07 in Rain Rain
4:55 AM 53.6 °F 53.6 °F 100% 29.98 in 10.0 mi SSW 8.1 mph - 0.08 in   Overcast
5:15 AM 53.6 °F 53.6 °F 100% 29.98 in 10.0 mi South 6.9 mph - 0.00 in   Overcast
5:35 AM 55.4 °F 53.6 °F 94% 29.98 in 10.0 mi SSW 5.8 mph - 0.00 in   Overcast
5:55 AM 53.6 °F 53.6 °F 100% 29.98 in 10.0 mi South 4.6 mph - 0.00 in   Overcast
6:15 AM 53.6 °F 53.6 °F 100% 29.98 in 10.0 mi SSW 5.8 mph - 0.00 in   Overcast
6:35 AM 55.4 °F 53.6 °F 94% 29.99 in 10.0 mi SSW 5.8 mph - 0.00 in   Overcast
6:55 AM 55.4 °F 51.8 °F 88% 29.98 in 10.0 mi SSW 5.8 mph - 0.00 in   Overcast
7:15 AM 55.4 °F 51.8 °F 88% 29.98 in 10.0 mi SSW 5.8 mph - 0.00 in   Overcast
7:35 AM 55.4 °F 51.8 °F 88% 29.98 in 10.0 mi SSW 8.1 mph - 0.00 in   Mostly Cloudy
7:55 AM 55.4 °F 51.8 °F 88% 29.98 in 10.0 mi SSW 8.1 mph - 0.00 in   Overcast
8:15 AM 55.4 °F 51.8 °F 88% 29.99 in 10.0 mi SSW 9.2 mph - 0.00 in   Mostly Cloudy
8:35 AM 55.4 °F 51.8 °F 88% 30.00 in 3.0 mi SSW 6.9 mph - 0.01 in Rain Light Rain
8:55 AM 55.4 °F 51.8 °F 88% 30.00 in 10.0 mi SSW 6.9 mph - 0.01 in   Mostly Cloudy
9:15 AM 55.4 °F 51.8 °F 88% 30.00 in 10.0 mi SSW 6.9 mph - 0.00 in   Mostly Cloudy
9:35 AM 57.2 °F 51.8 °F 82% 30.00 in 10.0 mi SSW 6.9 mph - 0.00 in   Mostly Cloudy
9:55 AM 57.2 °F 51.8 °F 82% 30.00 in 10.0 mi SW 5.8 mph - 0.00 in   Mostly Cloudy
10:15 AM 57.2 °F 51.8 °F 82% 30.00 in 10.0 mi SW 6.9 mph - 0.00 in   Scattered Clouds
10:35 AM 57.2 °F 51.8 °F 82% 30.00 in 10.0 mi SSW 8.1 mph - 0.00 in   Clear
10:55 AM 57.2 °F 51.8 °F 82% 30.00 in 5.0 mi SSW 8.1 mph - 0.00 in   Haze
11:15 AM 57.2 °F 51.8 °F 82% 30.00 in 10.0 mi SSW 11.5 mph - 0.00 in Rain Light Rain
11:35 AM 57.2 °F 51.8 °F 82% 30.00 in 7.0 mi SSW 12.7 mph 18.4 mph 0.00 in Rain , Thunderstorm Heavy Rain
11:55 AM 55.4 °F 53.6 °F 94% 29.97 in 3.0 mi SSW 10.4 mph - 0.11 in Rain Light Rain
12:15 PM 55.4 °F 53.6 °F 94% 29.95 in 7.0 mi SSW 8.1 mph - 0.01 in Rain Light Rain
12:35 PM 55.4 °F 55.4 °F 100% 29.93 in 10.0 mi South 8.1 mph - 0.01 in   Scattered Clouds
12:55 PM 57.2 °F 55.4 °F 94% 29.92 in 9.0 mi SSW 9.2 mph - 0.01 in   Mostly Cloudy
1:15 PM 57.2 °F 55.4 °F 94% 29.92 in 9.0 mi SSW 8.1 mph - 0.00 in Rain , Thunderstorm Light Rain
1:35 PM 57.2 °F 57.2 °F 100% 29.92 in 10.0 mi SSW 8.1 mph - 0.00 in Thunderstorm Light Drizzle
1:55 PM 59.0 °F 57.2 °F 94% 29.94 in 1.2 mi SSW 11.5 mph 18.4 mph 0.10 in Rain , Thunderstorm Heavy Rain
2:15 PM 57.2 °F 57.2 °F 100% 29.92 in 2.5 mi SSW 9.2 mph - 0.07 in Rain , Thunderstorm Light Rain
2:35 PM 57.2 °F 57.2 °F 100% 29.93 in 2.0 mi SSW 11.5 mph 16.1 mph 0.10 in Rain Rain
2:55 PM 57.2 °F 57.2 °F 100% 29.96 in 2.5 mi SW 16.1 mph 20.7 mph 0.14 in Rain Light Rain
3:15 PM 59.0 °F 57.2 °F 94% 29.96 in 3.0 mi West 10.4 mph - 0.04 in Rain Light Rain
3:35 PM 57.2 °F 57.2 °F 100% 29.95 in 5.0 mi West 4.6 mph - 0.07 in Rain Light Rain
3:55 PM 57.2 °F 57.2 °F 100% 29.97 in 4.0 mi SSW 3.5 mph - 0.11 in Rain Light Rain
4:15 PM 57.2 °F 57.2 °F 100% 29.99 in 1.8 mi South 6.9 mph - 0.04 in Rain , Thunderstorm Heavy Rain
4:35 PM 57.2 °F 57.2 °F 100% 29.90 in 1.5 mi SE 10.4 mph - 0.15 in Rain Light Rain
4:55 PM 57.2 °F 57.2 °F 100% 29.92 in 8.0 mi South 8.1 mph - 0.16 in   Light Drizzle
5:15 PM 57.2 °F 57.2 °F 100% 29.92 in 10.0 mi South 4.6 mph - 0.00 in   Mostly Cloudy
5:35 PM 57.2 °F 57.2 °F 100% 29.95 in 10.0 mi South 8.1 mph - 0.00 in   Overcast
5:55 PM 57.2 °F 57.2 °F 100% 29.98 in 10.0 mi SSW 6.9 mph - 0.00 in   Overcast
6:15 PM 57.2 °F 57.2 °F 100% 29.99 in 10.0 mi SSW 6.9 mph - 0.00 in   Overcast
6:35 PM 57.2 °F 57.2 °F 100% 29.99 in 10.0 mi South 4.6 mph - 0.00 in   Mostly Cloudy
6:55 PM 55.4 °F 55.4 °F 100% 30.00 in 9.0 mi SSW 3.5 mph - 0.00 in   Scattered Clouds
7:15 PM 55.4 °F 55.4 °F 100% 30.00 in 1.5 mi Calm Calm - 0.00 in   Mostly Cloudy
7:35 PM 53.6 °F 53.6 °F 100% 30.02 in 0.2 mi Calm Calm - 0.00 in Fog Fog
7:55 PM 55.4 °F 55.4 °F 100% 30.03 in 1.0 mi NW 3.5 mph - 0.00 in   Overcast
8:15 PM 55.4 °F 55.4 °F 100% 30.04 in 2.5 mi Calm Calm - 0.00 in   Overcast
8:35 PM 55.4 °F 55.4 °F 100% 30.04 in 5.0 mi Calm Calm - 0.00 in   Overcast
8:55 PM 55.4 °F 55.4 °F 100% 30.04 in 2.5 mi Calm Calm - 0.00 in   Overcast
9:15 PM 55.4 °F 55.4 °F 100% 30.05 in 4.0 mi Calm Calm - 0.00 in   Overcast
9:35 PM 55.4 °F 55.4 °F 100% 30.05 in 2.5 mi Calm Calm - 0.00 in   Overcast
9:55 PM 55.4 °F 55.4 °F 100% 30.05 in 1.2 mi Calm Calm - 0.00 in   Overcast
10:15 PM 55.4 °F 55.4 °F 100% 30.05 in 0.5 mi Calm Calm - 0.00 in Fog Fog
10:35 PM 55.4 °F 55.4 °F 100% 30.06 in 0.5 mi Calm Calm - 0.00 in Fog Fog
10:55 PM 53.6 °F 53.6 °F 100% 30.06 in 1.0 mi Calm Calm - 0.00 in   Overcast
11:15 PM 55.4 °F 55.4 °F 100% 30.07 in 1.5 mi Calm Calm - 0.00 in   Overcast
11:35 PM 55.4 °F 55.4 °F 100% 30.07 in 1.0 mi Calm Calm - 0.00 in   Light Drizzle
11:55 PM 55.4 °F 55.4 °F 100% 30.08 in 1.8 mi NNE 4.6 mph - 0.00 in   Light Drizzle